[[{"header":{"parameterUnit":"m.s-1","parameterCategory":1,"la1":30.2991,"la2":30.254,"lo1":-89.0895,"lo2":-89.0444,"dy":0.0017,"dx":0.0017,"nx":28,"ny":28,"refTime":"2024-03-19T03:00:00:Z","depth":0,"parameterNumber":2,"parameterNumberName":"U-component_of_WINDS"},"data":[0,0,0,0,0,0,0,0,0,0,0,0,0,0,0,0,0,0,0,0,0,0,0,0,0,0,0,0,0,0,0,0,0,0,0,0,0,0,0,0,0,0,0,0,0,0,0,0,0,0,0,0,0,0,0,0,0,0,-1.1794,-1.1793,0,-1.173,-1.1729,-1.1729,-1.1631,-1.163,-1.1628,-1.1626,-1.1564,-1.1564,-1.1564,0,0,0,0,0,0,0,0,0,0,0,0,0,-1.1833,-1.1833,-1.1794,-1.1793,-1.1792,-1.173,-1.1729,-1.1729,-1.1632,-1.163,-1.1627,-1.1625,-1.1564,-1.1564,-1.1564,0,0,0,0,0,0,0,0,0,0,0,0,0,-1.1798,-1.1833,-1.1794,-1.1736,-1.173,-1.173,-1.1729,-1.1728,-1.1632,-1.163,-1.1627,-1.1624,-1.1564,-1.1564,-1.1564,-1.1616,0,0,-1.1564,-1.1564,0,0,0,0,0,0,0,0,-1.18,-1.1797,-1.1745,-1.174,-1.1734,-1.1686,-1.1721,-1.1691,-1.1633,-1.167,-1.1626,-1.1623,-1.1607,-1.1603,-1.1597,-1.1614,-1.1611,-1.1564,-1.1564,-1.1564,-1.1564,0,0,0,0,0,0,0,-1.1803,-1.1799,-1.1769,-1.1745,-1.1738,-1.1714,-1.1706,-1.1715,-1.1654,-1.1666,-1.1659,-1.1653,-1.1603,-1.1598,-1.1595,-1.161,-1.1564,-1.1564,-1.1564,-1.1564,-1.1667,-1.167,0,0,0,0,0,0,-1.1813,-1.1801,-1.1771,-1.1767,-1.1761,-1.1716,-1.1707,-1.1704,-1.1653,-1.1643,-1.1655,-1.1648,-1.1599,-1.1595,-1.1593,-1.1651,-1.1564,-1.1564,-1.1564,-1.1664,-1.1668,-1.1671,0,0,0,0,0,0,-1.1814,-1.1811,-1.1773,-1.1782,-1.1775,-1.1718,-1.1715,-1.1704,-1.1698,-1.1645,-1.1634,-1.166,-1.1597,-1.1593,-1.1611,-1.1648,-1.1564,-1.1564,-1.1661,-1.1665,-1.1669,-1.1769,0,0,0,0,0,0,-1.1816,-1.1812,-1.1831,-1.1783,-1.1775,-1.1792,-1.1718,-1.1705,-1.1698,-1.1689,-1.1647,-1.1637,-1.1594,-1.1612,-1.1611,-1.1646,-1.1564,-1.1658,-1.1663,-1.1668,-1.1762,-1.1776,-1.1788,0,0,0,0,0,-1.1818,-1.1862,-1.1832,-1.1829,-1.1797,-1.1795,-1.179,-1.1739,-1.1701,-1.172,-1.1686,-1.1639,-1.1644,-1.1615,-1.1613,-1.1649,-1.1655,-1.1661,-1.1667,-1.1757,-1.1773,-1.1788,0,0,0,0,0,0,-1.1916,-1.1855,-1.1821,-1.1851,-1.1829,-1.1778,-1.18,-1.1758,-1.1747,-1.1739,-1.1677,-1.1668,-1.1695,-1.1673,-1.1642,-1.1697,-1.1642,-1.1648,-1.171,-1.1726,-1.1739,-1.1744,-1.1564,0,0,0,0,0,-1.1942,-1.1944,-1.189,-1.1922,-1.1912,-1.1858,-1.1855,-1.1818,-1.1792,-1.1783,-1.175,-1.1728,-1.1725,-1.1724,-1.1718,-1.1758,-1.1749,-1.1782,-1.1795,-1.1806,-1.1812,-1.1833,-1.1848,-1.1691,-1.1691,-1.1691,0,0,-1.1994,-1.196,-1.1966,-1.1941,-1.1919,-1.1924,-1.1851,-1.1859,-1.1862,-1.1784,-1.18,-1.1775,-1.1747,-1.1777,-1.1789,-1.176,-1.1853,-1.1813,-1.1823,-1.1823,-1.1841,-1.1856,-1.187,-1.1695,-1.1694,-1.1694,0,0,-1.2092,-1.2066,-1.209,-1.207,-1.2037,-1.2001,-1.2007,-1.1963,-1.1943,-1.1958,-1.19,-1.1903,-1.1898,-1.1881,-1.1871,-1.1963,-1.192,-1.1963,-1.203,-1.2052,-1.2064,-1.2075,-1.2109,-1.2122,-1.1969,-1.1969,-1.1969,0,-1.2161,-1.2165,-1.2108,-1.212,-1.2111,-1.2039,-1.2064,-1.2047,-1.2015,-1.2012,-1.1979,-1.1972,-1.1948,-1.1974,-1.1996,-1.199,-1.1996,-1.1968,-1.2067,-1.2077,-1.2086,-1.2118,-1.2131,-1.1975,-1.1974,-1.1974,-1.1973,0,-1.2253,-1.2256,-1.228,-1.225,-1.2244,-1.2262,-1.2209,-1.2209,-1.2172,-1.214,-1.2157,-1.2125,-1.2112,-1.2115,-1.2079,-1.2136,-1.2119,-1.2078,-1.2022,-1.2108,-1.2137,-1.2148,-1.1983,-1.1981,-1.1979,-1.1978,0,0,-1.2412,-1.235,-1.236,-1.2346,-1.2305,-1.2307,-1.2323,-1.2309,-1.2311,-1.2292,-1.2304,-1.2302,-1.2263,-1.2253,-1.2214,-1.2233,-1.2309,-1.2189,-1.2187,-1.2214,-1.2372,-1.2405,-1.242,-1.228,-1.2282,-1.2283,-1.2375,0,-1.2502,-1.2524,-1.2474,-1.2509,-1.2513,-1.2445,-1.2458,-1.2436,-1.2406,-1.2406,-1.2373,-1.2373,-1.2321,-1.2315,-1.233,-1.2297,-1.2341,-1.2289,-1.2292,-1.2293,-1.2303,-1.2435,-1.2469,-1.2557,-1.2386,-1.2388,-1.2389,0,-1.2611,-1.2597,-1.2633,-1.259,-1.259,-1.2603,-1.2587,-1.2586,-1.256,-1.2537,-1.2525,-1.248,-1.2493,-1.2439,-1.2457,-1.2424,-1.2422,-1.2406,-1.2408,-1.2407,-1.2348,-1.244,-1.2583,-1.2598,-1.2406,-1.2405,-1.2403,0,-1.2726,-1.2715,-1.2735,-1.2725,-1.2676,-1.2687,-1.2667,-1.2638,-1.2633,-1.2619,-1.2616,-1.2604,-1.2598,-1.259,-1.2544,-1.2507,-1.2568,-1.2509,-1.2551,-1.2553,-1.2569,-1.2569,-1.2716,-1.2565,-1.2565,-1.2565,-1.2564,0,-1.2834,-1.2858,-1.2786,-1.2799,-1.2825,-1.2766,-1.2794,-1.2768,-1.2742,-1.2749,-1.269,-1.2698,-1.2635,-1.2637,-1.26,-1.2622,-1.262,-1.2603,-1.2593,-1.2609,-1.2612,-1.2608,-1.2602,-1.2568,-1.2567,-1.2567,-1.2566,0,-1.2967,-1.2919,-1.2936,-1.2888,-1.2877,-1.2899,-1.2858,-1.2868,-1.2834,-1.2845,-1.2844,-1.2791,-1.279,-1.2743,-1.2732,-1.2707,-1.2745,-1.2723,-1.2754,-1.2748,-1.2794,-1.2791,-1.2946,-1.2964,-1.28,-1.2802,-1.2803,0,-1.3039,-1.3057,-1.301,-1.301,-1.2993,-1.2994,-1.2989,-1.2932,-1.293,-1.2901,-1.2915,-1.2909,-1.2901,-1.2903,-1.2865,-1.2857,-1.2836,-1.289,-1.2834,-1.285,-1.2839,-1.2839,-1.2841,-1.2903,-1.2905,-1.2907,-1.2908,0,-1.3174,-1.3149,-1.3143,-1.313,-1.3125,-1.3112,-1.3095,-1.3099,-1.3037,-1.3037,-1.3035,-1.3029,-1.3018,-1.3013,-1.2998,-1.2978,-1.2934,-1.2926,-1.2936,-1.2953,-1.2971,-1.2964,-1.2789,-1.2923,-1.2922,-1.292,-1.292,-1.2919,-1.328,-1.3292,-1.3262,-1.3258,-1.3239,-1.3225,-1.3232,-1.32,-1.3197,-1.3183,-1.3149,-1.3153,-1.3127,-1.3101,-1.3086,-1.3089,-1.3062,-1.3075,-1.3079,-1.3084,-1.3094,-1.2969,-1.3086,-1.3085,-1.3085,-1.3085,-1.3084,0,-1.3412,-1.339,-1.3386,-1.3364,-1.3362,-1.3318,-1.3297,-1.3298,-1.3302,-1.3281,-1.3274,-1.3273,-1.3268,-1.3229,-1.3221,-1.3231,-1.321,-1.323,-1.323,-1.3227,-1.3118,-1.3111,-1.3247,-1.3247,-1.3247,-1.3247,-1.3247,-1.3247,-1.3481,-1.3501,-1.3474,-1.3484,-1.3461,-1.3463,-1.3455,-1.3442,-1.3425,-1.3426,-1.3421,-1.3396,-1.3368,-1.3357,-1.3351,-1.334,-1.334,-1.3368,-1.3351,-1.325,-1.3234,-1.3219,-1.3213,-1.3368,-1.3368,-1.346,-1.346,-1.3461]},{"header":{"parameterUnit":"m.s-1","parameterCategory":1,"la1":30.2991,"la2":30.254,"lo1":-89.0895,"lo2":-89.0444,"dy":0.0017,"dx":0.0017,"nx":28,"ny":28,"refTime":"2024-03-19T03:00:00:Z","depth":0,"parameterNumber":3,"parameterNumberName":"V-component_of_WINDS"},"data":[0,0,0,0,0,0,0,0,0,0,0,0,0,0,0,0,0,0,0,0,0,0,0,0,0,0,0,0,0,0,0,0,0,0,0,0,0,0,0,0,0,0,0,0,0,0,0,0,0,0,0,0,0,0,0,0,0,0,-1.3641,-1.3641,0,-1.367,-1.367,-1.3671,-1.3642,-1.3641,-1.364,-1.3639,-1.3669,-1.3671,-1.3673,0,0,0,0,0,0,0,0,0,0,0,0,0,-1.3561,-1.3562,-1.3641,-1.3641,-1.3641,-1.367,-1.367,-1.3671,-1.3642,-1.3641,-1.364,-1.3638,-1.3669,-1.3671,-1.3673,0,0,0,0,0,0,0,0,0,0,0,0,0,-1.3593,-1.3563,-1.3641,-1.3631,-1.363,-1.367,-1.367,-1.3671,-1.3643,-1.3641,-1.3639,-1.3638,-1.3668,-1.3671,-1.3673,-1.3725,0,0,-1.3682,-1.3683,0,0,0,0,0,0,0,0,-1.3591,-1.3596,-1.3632,-1.3631,-1.3631,-1.3651,-1.3653,-1.3689,-1.3643,-1.3638,-1.3639,-1.3637,-1.3665,-1.3667,-1.3677,-1.3726,-1.3727,-1.3682,-1.3684,-1.3685,-1.3686,0,0,0,0,0,0,0,-1.3589,-1.3595,-1.3652,-1.3632,-1.3632,-1.3625,-1.3628,-1.366,-1.366,-1.3638,-1.3636,-1.364,-1.3664,-1.3674,-1.3677,-1.3728,-1.3682,-1.3685,-1.3686,-1.3688,-1.3823,-1.3825,0,0,0,0,0,0,-1.3588,-1.3593,-1.3651,-1.3653,-1.3606,-1.3628,-1.3631,-1.3646,-1.366,-1.366,-1.3641,-1.3639,-1.367,-1.3674,-1.3678,-1.3741,-1.3685,-1.3688,-1.3689,-1.3821,-1.3823,-1.3825,0,0,0,0,0,0,-1.3586,-1.3593,-1.365,-1.3623,-1.3629,-1.3631,-1.3648,-1.3647,-1.3658,-1.3662,-1.3662,-1.3652,-1.3669,-1.3674,-1.3714,-1.3742,-1.3689,-1.3692,-1.3819,-1.3822,-1.3824,-1.3866,0,0,0,0,0,0,-1.3584,-1.3593,-1.3612,-1.3623,-1.3631,-1.3685,-1.365,-1.3649,-1.3662,-1.3659,-1.3672,-1.3673,-1.3668,-1.371,-1.3717,-1.3744,-1.3694,-1.3816,-1.382,-1.3823,-1.3862,-1.387,-1.3876,0,0,0,0,0,-1.3581,-1.3623,-1.3613,-1.3621,-1.3655,-1.3687,-1.3691,-1.3685,-1.3665,-1.3685,-1.3688,-1.3672,-1.3737,-1.3714,-1.3721,-1.3751,-1.3814,-1.3819,-1.3823,-1.3859,-1.3868,-1.3876,0,0,0,0,0,0,-1.3615,-1.3624,-1.3614,-1.366,-1.3673,-1.3682,-1.3707,-1.3695,-1.3714,-1.371,-1.3701,-1.3705,-1.3747,-1.3752,-1.3727,-1.3802,-1.3772,-1.3778,-1.3797,-1.3806,-1.3813,-1.3812,-1.3696,0,0,0,0,0,-1.3627,-1.3652,-1.3659,-1.3699,-1.3706,-1.3705,-1.3719,-1.3713,-1.3726,-1.3731,-1.3737,-1.3751,-1.3774,-1.379,-1.3812,-1.3862,-1.3865,-1.3886,-1.3893,-1.3899,-1.3905,-1.3933,-1.3943,-1.3839,-1.3839,-1.3839,0,0,-1.3654,-1.3662,-1.3678,-1.3706,-1.3715,-1.3742,-1.371,-1.3739,-1.3759,-1.3736,-1.3774,-1.3779,-1.3793,-1.3839,-1.3859,-1.3845,-1.3934,-1.3904,-1.3909,-1.3912,-1.3939,-1.3949,-1.3957,-1.3842,-1.3842,-1.3841,0,0,-1.3717,-1.3724,-1.3759,-1.377,-1.3784,-1.3784,-1.3792,-1.3803,-1.3806,-1.3844,-1.3827,-1.3851,-1.3891,-1.3903,-1.3914,-1.3981,-1.3969,-1.3988,-1.4027,-1.4055,-1.4063,-1.407,-1.4097,-1.4106,-1.3994,-1.3994,-1.3994,0,-1.3748,-1.3787,-1.3779,-1.381,-1.3823,-1.3803,-1.3839,-1.3849,-1.387,-1.388,-1.3863,-1.3914,-1.3922,-1.3971,-1.3988,-1.3997,-1.4007,-1.3988,-1.4063,-1.407,-1.4076,-1.4101,-1.4111,-1.3996,-1.3996,-1.3996,-1.3996,0,-1.3826,-1.3854,-1.388,-1.3902,-1.3917,-1.3951,-1.3948,-1.3965,-1.3957,-1.3959,-1.3998,-1.4007,-1.4032,-1.4042,-1.4035,-1.4091,-1.4082,-1.4064,-1.4035,-1.4089,-1.4112,-1.4122,-1.4,-1.3999,-1.3998,-1.3998,0,0,-1.3912,-1.3928,-1.3938,-1.3949,-1.3964,-1.3985,-1.4017,-1.4041,-1.4057,-1.4071,-1.41,-1.4134,-1.4118,-1.4131,-1.4125,-1.4149,-1.4205,-1.4128,-1.4129,-1.4144,-1.4269,-1.4284,-1.4295,-1.4195,-1.4197,-1.4198,-1.4268,0,-1.3977,-1.4033,-1.4027,-1.4082,-1.4108,-1.4089,-1.4118,-1.413,-1.4132,-1.4155,-1.4157,-1.4183,-1.4158,-1.4166,-1.4189,-1.4193,-1.423,-1.4187,-1.4223,-1.4224,-1.4222,-1.4307,-1.4323,-1.4388,-1.4277,-1.4279,-1.428,0,-1.406,-1.4079,-1.4136,-1.4148,-1.4159,-1.4185,-1.4207,-1.4228,-1.4242,-1.4242,-1.4257,-1.4246,-1.428,-1.4248,-1.4295,-1.4266,-1.428,-1.4284,-1.4287,-1.4292,-1.4257,-1.4316,-1.4409,-1.442,-1.4294,-1.4292,-1.4291,0,-1.412,-1.4159,-1.4199,-1.4208,-1.4222,-1.4241,-1.4248,-1.426,-1.4275,-1.4294,-1.4304,-1.4326,-1.4339,-1.4357,-1.4353,-1.433,-1.4402,-1.437,-1.4404,-1.4404,-1.4422,-1.4421,-1.4521,-1.4427,-1.4427,-1.4426,-1.4426,0,-1.4194,-1.4231,-1.4226,-1.4251,-1.4292,-1.4284,-1.4324,-1.4328,-1.434,-1.4366,-1.435,-1.4374,-1.4367,-1.4391,-1.4388,-1.4429,-1.4434,-1.4436,-1.4435,-1.4439,-1.4439,-1.4449,-1.4446,-1.4429,-1.4429,-1.4428,-1.4428,0,-1.4269,-1.4267,-1.431,-1.432,-1.4323,-1.4353,-1.4362,-1.4386,-1.4386,-1.4419,-1.4426,-1.4428,-1.4456,-1.4453,-1.4484,-1.4482,-1.4533,-1.4526,-1.4529,-1.4528,-1.4564,-1.4561,-1.4675,-1.4691,-1.4585,-1.4586,-1.4586,0,-1.4317,-1.4345,-1.4359,-1.4375,-1.4383,-1.441,-1.4425,-1.4418,-1.4435,-1.4453,-1.4475,-1.4502,-1.4523,-1.4569,-1.4573,-1.4597,-1.4591,-1.463,-1.4595,-1.4598,-1.4595,-1.4594,-1.4598,-1.4637,-1.4638,-1.4639,-1.464,0,-1.4405,-1.4403,-1.4426,-1.4449,-1.4468,-1.4486,-1.4502,-1.4516,-1.4511,-1.453,-1.4559,-1.4576,-1.4608,-1.4635,-1.4658,-1.4666,-1.4653,-1.4651,-1.466,-1.4666,-1.4667,-1.4669,-1.455,-1.4649,-1.4648,-1.4647,-1.4647,-1.4646,-1.447,-1.4494,-1.4508,-1.4535,-1.4546,-1.4562,-1.4585,-1.4589,-1.4612,-1.4639,-1.4632,-1.4665,-1.4679,-1.4709,-1.4719,-1.4745,-1.4731,-1.4744,-1.4748,-1.4752,-1.4758,-1.4661,-1.4748,-1.4748,-1.4748,-1.4748,-1.4748,0,-1.4559,-1.4567,-1.4591,-1.4615,-1.4636,-1.4621,-1.4638,-1.4657,-1.4686,-1.47,-1.4721,-1.4755,-1.4781,-1.4787,-1.4813,-1.4832,-1.4827,-1.484,-1.4839,-1.4842,-1.4767,-1.4758,-1.4844,-1.4844,-1.4843,-1.4843,-1.4843,-1.4843,-1.4608,-1.4649,-1.4649,-1.4696,-1.4703,-1.4736,-1.4747,-1.4762,-1.4773,-1.4812,-1.4834,-1.4837,-1.4849,-1.4875,-1.4899,-1.49,-1.4911,-1.4926,-1.4925,-1.4856,-1.4847,-1.4838,-1.4829,-1.4928,-1.4928,-1.4998,-1.4998,-1.4999]}]]